This is the latest recevied weather packets stored in our database for station/object KJ4RDP-13. If no packets are shown the sender has not sent any weather packets the latest 10 day(s).
| Time | Temp. | Humidity | Pressure | Rain* | Wind** | Luminosity | Snow |
|---|---|---|---|---|---|---|---|
| 1777822774 | 12.22° C | 52% | 1019.6 hPa | 0 mm | - | 641 W/m² | - |
| 1777822472 | 12.22° C | 53% | 1019.6 hPa | 0 mm | - | 588 W/m² | - |
| 1777822170 | 11.67° C | 55% | 1019.6 hPa | 0 mm | - | 611 W/m² | - |
| 1777821866 | 11.11° C | 56% | 1019.6 hPa | 0 mm | - | 637 W/m² | - |
| 1777821564 | 11.11° C | 58% | 1019.6 hPa | 0 mm | - | 630 W/m² | - |
| 1777821262 | 11.67° C | 55% | 1019.6 hPa | 0 mm | - | 638 W/m² | - |
| 1777820958 | 11.11° C | 57% | 1019.6 hPa | 0 mm | - | 637 W/m² | - |
| 1777820655 | 11.11° C | 56% | 1019.6 hPa | 0 mm | - | 635 W/m² | - |
| 1777820351 | 10.56° C | 56% | 1019.6 hPa | 0 mm | - | 628 W/m² | - |
| 1777820049 | 10.56° C | 55% | 1019.6 hPa | 0 mm | - | 639 W/m² | - |
| 1777819745 | 11.11° C | 57% | 1019.6 hPa | 0 mm | - | 623 W/m² | - |
| 1777819444 | 11.11° C | 54% | 1019.6 hPa | 0 mm | - | 618 W/m² | - |
| 1777819141 | 11.11° C | 54% | 1019.6 hPa | 0 mm | - | 606 W/m² | - |
| 1777818838 | 10.56° C | 58% | 1019.6 hPa | 0 mm | - | 592 W/m² | - |
| 1777818534 | 10° C | 58% | 1019.6 hPa | 0 mm | - | 593 W/m² | - |
| 1777818232 | 10° C | 58% | 1019.6 hPa | 0 mm | - | 587 W/m² | - |
| 1777817927 | 10° C | 58% | 1019.3 hPa | 0 mm | - | 572 W/m² | - |
| 1777817625 | 10° C | 58% | 1019.6 hPa | 0 mm | - | 563 W/m² | - |
| 1777817321 | 10° C | 57% | 1019.3 hPa | 0 mm | - | 543 W/m² | - |
| 1777817019 | 10° C | 58% | 1019.3 hPa | 0 mm | - | 527 W/m² | - |
| 1777816714 | 10° C | 60% | 1019.3 hPa | 0 mm | - | 519 W/m² | - |
| 1777816412 | 9.44° C | 59% | 1019.6 hPa | 0 mm | - | 500 W/m² | - |
| 1777816110 | 9.44° C | 60% | 1019.6 hPa | 0 mm | - | 492 W/m² | - |
| 1777815807 | 8.89° C | 61% | 1019.6 hPa | 0 mm | - | 475 W/m² | - |
| 1777815505 | 9.44° C | 64% | 1019.3 hPa | 0 mm | - | 442 W/m² | - |
* Rain latest hour (hover to see other rain measurements)
** Current wind speed in m/s (hover to see current wind gust speed)